| time (UTC) | temp C | wind direction | speed KPH | gust KPH | rain 1hr cm | rain 24hr cm | rain mn cm | humidity % | barometer mb |
| 20260507010510 | 15 | 98 | 1.6 | 6.4 | 0.03 | 0.64 | 0.64 | 92 | 1006.3 |
| 20260507010038 | 15 | 85 | 1.6 | 9.7 | 0.03 | 0.64 | 0.64 | 92 | 1006.3 |
| 20260507005508 | 15 | 93 | 1.6 | 12.9 | 0.03 | 0.64 | 0.64 | 92 | 1006.4 |
| 20260507005003 | 15 | 107 | 4.8 | 12.9 | 0.03 | 0.64 | 0.64 | 92 | 1006.4 |
| 20260507004508 | 15 | 101 | 3.2 | 12.9 | 0.03 | 0.64 | 0.64 | 92 | 1006.3 |
| 20260507004007 | 15 | 96 | 3.2 | 12.9 | 0.03 | 0.64 | 0.64 | 92 | 1006.2 |
| 20260507003506 | 15 | 94 | 1.6 | 9.7 | 0.03 | 0.64 | 0.64 | 92 | 1006.2 |
| 20260507003007 | 15 | 25 | 1.6 | 9.7 | 0.03 | 0.64 | 0.64 | 92 | 1006.2 |
| 20260507002506 | 15 | 74 | 3.2 | 11.3 | 0.03 | 0.64 | 0.64 | 92 | 1006.1 |
| 20260507002007 | 15 | 104 | 1.6 | 11.3 | 0.03 | 0.64 | 0.64 | 92 | 1006.1 |
| 20260507001503 | 15 | 110 | 3.2 | 12.9 | 0.03 | 0.64 | 0.64 | 92 | 1006.0 |
| 20260507001004 | 15 | 83 | 3.2 | 12.9 | 0.03 | 0.64 | 0.64 | 92 | 1006.0 |
| 20260507000507 | 15 | 84 | 3.2 | 12.9 | 0.00 | 0.61 | 0.61 | 92 | 1005.9 |
| 20260507000022 | 15 | 94 | 1.6 | 12.9 | 0.00 | 0.61 | 0.61 | 92 | 1005.9 |
| 20260506235504 | 15 | 119 | 0.0 | 11.3 | 0.00 | 0.61 | 0.61 | 92 | 1006.0 |
| 20260506235006 | 15 | 94 | 1.6 | 11.3 | 0.03 | 0.61 | 0.61 | 92 | 1006.0 |
| 20260506234520 | 15 | 87 | 3.2 | 12.9 | 0.05 | 0.61 | 0.61 | 92 | 1006.0 |
| 20260506234003 | 15 | 118 | 3.2 | 12.9 | 0.08 | 0.61 | 0.61 | 92 | 1005.9 |
| 20260506233507 | 15 | 94 | 1.6 | 12.9 | 0.10 | 0.61 | 0.61 | 92 | 1005.8 |
| 20260506233016 | 15 | 96 | 3.2 | 9.7 | 0.10 | 0.61 | 0.61 | 92 | 1005.9 |
| 20260506232508 | 15 | 90 | 3.2 | 11.3 | 0.10 | 0.61 | 0.61 | 92 | 1005.9 |
| 20260506232003 | 15 | 104 | 3.2 | 11.3 | 0.13 | 0.61 | 0.61 | 92 | 1005.8 |
| 20260506231514 | 15 | 94 | 3.2 | 12.9 | 0.15 | 0.61 | 0.61 | 92 | 1005.8 |
| 20260506231007 | 15 | 96 | 4.8 | 12.9 | 0.15 | 0.61 | 0.61 | 93 | 1005.9 |
| 20260506230504 | 15 | 119 | 1.6 | 9.7 | 0.18 | 0.61 | 0.61 | 93 | 1005.8 |
| 20260506230010 | 15 | 96 | 0.0 | 9.7 | 0.18 | 0.61 | 0.61 | 93 | 1005.8 |
| 20260506225508 | 15 | 115 | 3.2 | 9.7 | 0.18 | 0.61 | 0.61 | 92 | 1005.9 |
| 20260506225011 | 15 | 83 | 3.2 | 9.7 | 0.18 | 0.58 | 0.58 | 92 | 1005.9 |
| 20260506224508 | 15 | 102 | 1.6 | 12.9 | 0.18 | 0.56 | 0.56 | 92 | 1006.0 |
| 20260506224003 | 15 | 104 | 1.6 | 12.9 | 0.15 | 0.53 | 0.53 | 92 | 1006.0 |
| 20260506223506 | 15 | 94 | 4.8 | 11.3 | 0.15 | 0.51 | 0.51 | 92 | 1006.1 |
| 20260506223020 | 15 | 108 | 1.6 | 11.3 | 0.18 | 0.51 | 0.51 | 92 | 1006.1 |
| 20260506222505 | 15 | 64 | 3.2 | 11.3 | 0.20 | 0.51 | 0.51 | 92 | 1006.1 |
| 20260506222010 | 15 | 96 | 4.8 | 11.3 | 0.18 | 0.48 | 0.48 | 92 | 1006.0 |
| 20260506221521 | 15 | 35 | 1.6 | 12.9 | 0.15 | 0.46 | 0.46 | 92 | 1006.1 |
| 20260506221003 | 15 | 121 | 1.6 | 12.9 | 0.15 | 0.46 | 0.46 | 92 | 1006.1 |
| 20260506220503 | 15 | 96 | 3.2 | 12.9 | 0.13 | 0.43 | 0.43 | 92 | 1006.2 |
| 20260506220017 | 15 | 103 | 1.6 | 9.7 | 0.13 | 0.43 | 0.43 | 91 | 1006.3 |
| 20260506215506 | 15 | 57 | 3.2 | 12.9 | 0.13 | 0.43 | 0.43 | 91 | 1006.3 |
| 20260506215004 | 15 | 121 | 3.2 | 12.9 | 0.10 | 0.41 | 0.41 | 91 | 1006.3 |
| 20260506214517 | 15 | 102 | 3.2 | 12.9 | 0.08 | 0.38 | 0.38 | 91 | 1006.3 |
| 20260506214007 | 15 | 116 | 3.2 | 12.9 | 0.10 | 0.38 | 0.38 | 90 | 1006.4 |
| 20260506213502 | 15 | 71 | 3.2 | 11.3 | 0.08 | 0.36 | 0.36 | 90 | 1006.4 |
| 20260506213014 | 15 | 96 | 4.8 | 11.3 | 0.05 | 0.33 | 0.33 | 90 | 1006.4 |
| 20260506212507 | 15 | 98 | 3.2 | 14.5 | 0.03 | 0.30 | 0.30 | 90 | 1006.3 |
| 20260506212010 | 15 | 71 | 0.0 | 14.5 | 0.05 | 0.30 | 0.30 | 90 | 1006.4 |
| 20260506211512 | 15 | 98 | 4.8 | 11.3 | 0.05 | 0.30 | 0.30 | 90 | 1006.5 |
| 20260506211008 | 15 | 71 | 3.2 | 14.5 | 0.05 | 0.30 | 0.30 | 90 | 1006.6 |
| 20260506210509 | 15 | 71 | 3.2 | 14.5 | 0.08 | 0.30 | 0.30 | 90 | 1006.6 |
| 20260506210012 | 15 | 85 | 3.2 | 16.1 | 0.08 | 0.30 | 0.30 | 90 | 1006.6 |
| 20260506205507 | 15 | 85 | 6.4 | 16.1 | 0.10 | 0.30 | 0.30 | 89 | 1006.7 |
| 20260506205005 | 15 | 127 | 3.2 | 9.7 | 0.10 | 0.30 | 0.30 | 90 | 1006.7 |
| 20260506204523 | 15 | 65 | 1.6 | 12.9 | 0.13 | 0.30 | 0.30 | 90 | 1006.8 |
| 20260506204004 | 15 | 62 | 4.8 | 12.9 | 0.10 | 0.28 | 0.28 | 89 | 1006.9 |
| 20260506203507 | 15 | 98 | 4.8 | 12.9 | 0.10 | 0.28 | 0.28 | 89 | 1007.0 |
| 20260506203033 | 15 | 95 | 4.8 | 16.1 | 0.10 | 0.28 | 0.28 | 89 | 1007.0 |
| 20260506202507 | 15 | 82 | 4.8 | 19.3 | 0.10 | 0.28 | 0.28 | 89 | 1007.0 |
| 20260506202006 | 15 | 85 | 3.2 | 19.3 | 0.10 | 0.25 | 0.25 | 89 | 1007.0 |
| 20260506201520 | 15 | 71 | 6.4 | 19.3 | 0.10 | 0.25 | 0.25 | 89 | 1007.1 |
| 20260506201007 | 15 | 90 | 1.6 | 12.9 | 0.10 | 0.25 | 0.25 | 89 | 1007.0 |
| 20260506200505 | 15 | 346 | 3.2 | 11.3 | 0.08 | 0.23 | 0.23 | 89 | 1007.0 |
| 20260506200015 | 15 | 90 | 3.2 | 17.7 | 0.10 | 0.23 | 0.23 | 88 | 1007.0 |
| 20260506195508 | 16 | 104 | 3.2 | 20.9 | 0.08 | 0.20 | 0.20 | 86 | 1007.0 |
| 20260506195011 | 16 | 80 | 8.0 | 20.9 | 0.08 | 0.20 | 0.20 | 86 | 1007.1 |
| 20260506194514 | 16 | 84 | 6.4 | 14.5 | 0.08 | 0.18 | 0.18 | 86 | 1007.2 |
| 20260506194008 | 16 | 98 | 4.8 | 11.3 | 0.10 | 0.18 | 0.18 | 87 | 1007.2 |
| 20260506193508 | 16 | 116 | 0.0 | 16.1 | 0.10 | 0.18 | 0.18 | 87 | 1007.1 |
| 20260506193009 | 16 | 300 | 6.4 | 16.1 | 0.13 | 0.18 | 0.18 | 85 | 1007.2 |
| 20260506192507 | 16 | 329 | 6.4 | 14.5 | 0.15 | 0.18 | 0.18 | 85 | 1007.1 |
| 20260506192014 | 16 | 12 | 3.2 | 12.9 | 0.13 | 0.15 | 0.15 | 86 | 1007.2 |
| 20260506191524 | 16 | 98 | 4.8 | 11.3 | 0.13 | 0.15 | 0.15 | 87 | 1007.1 |
| 20260506191002 | 16 | 70 | 1.6 | 9.7 | 0.13 | 0.15 | 0.15 | 86 | 1007.2 |
| 20260506190507 | 16 | 123 | 4.8 | 14.5 | 0.15 | 0.15 | 0.15 | 85 | 1007.1 |
| 20260506190024 | 16 | 71 | 6.4 | 14.5 | 0.13 | 0.13 | 0.13 | 83 | 1007.0 |
| 20260506185502 | 17 | 117 | 3.2 | 12.9 | 0.13 | 0.13 | 0.13 | 84 | 1007.0 |
| 20260506185005 | 17 | 78 | 1.6 | 12.9 | 0.13 | 0.13 | 0.13 | 83 | 1007.1 |
| 20260506184522 | 17 | 113 | 4.8 | 16.1 | 0.10 | 0.10 | 0.10 | 80 | 1007.2 |
| 20260506184009 | 17 | 122 | 4.8 | 20.9 | 0.08 | 0.08 | 0.08 | 79 | 1007.3 |
| 20260506183507 | 17 | 77 | 9.7 | 20.9 | 0.08 | 0.08 | 0.08 | 77 | 1007.5 |
| 20260506183020 | 18 | 59 | 6.4 | 12.9 | 0.05 | 0.05 | 0.05 | 76 | 1007.4 |
| 20260506182507 | 18 | 118 | 1.6 | 6.4 | 0.03 | 0.03 | 0.03 | 76 | 1007.7 |
| 20260506182004 | 18 | 86 | 1.6 | 11.3 | 0.03 | 0.03 | 0.03 | 76 | 1007.6 |
| 20260506181515 | 18 | 113 | 3.2 | 17.7 | 0.03 | 0.03 | 0.03 | 72 | 1007.5 |
| 20260506181007 | 19 | 114 | 4.8 | 17.7 | 0.03 | 0.03 | 0.03 | 70 | 1007.7 |
| 20260506180509 | 20 | 113 | 4.8 | 22.5 | 0.00 | 0.00 | 0.00 | 67 | 1007.7 |
| 20260506180014 | 20 | 67 | 6.4 | 30.6 | 0.00 | 0.00 | 0.00 | 64 | 1007.8 |
| 20260506175505 | 20 | 127 | 8.0 | 30.6 | 0.00 | 0.00 | 0.00 | 60 | 1007.7 |
| 20260506175012 | 21 | 81 | 11.3 | 19.3 | 0.00 | 0.00 | 0.00 | 58 | 1007.6 |
| 20260506174524 | 21 | 59 | 4.8 | 17.7 | 0.00 | 0.00 | 0.00 | 57 | 1007.5 |
| 20260506174007 | 21 | 80 | 8.0 | 17.7 | 0.00 | 0.00 | 0.00 | 58 | 1007.6 |
| 20260506173506 | 21 | 96 | 3.2 | 20.9 | 0.00 | 0.00 | 0.00 | 56 | 1007.5 |
| 20260506173031 | 21 | 86 | 3.2 | 29.0 | 0.00 | 0.00 | 0.00 | 55 | 1007.5 |
| 20260506172503 | 22 | 85 | 8.0 | 29.0 | 0.00 | 0.00 | 0.00 | 54 | 1007.4 |
| 20260506172009 | 22 | 79 | 4.8 | 29.0 | 0.00 | 0.00 | 0.00 | 54 | 1007.4 |
| 20260506171527 | 22 | 345 | 12.9 | 35.4 | 0.00 | 0.00 | 0.00 | 53 | 1007.4 |
| 20260506171008 | 22 | 95 | 11.3 | 35.4 | 0.00 | 0.00 | 0.00 | 52 | 1007.3 |
| 20260506170507 | 22 | 94 | 6.4 | 25.7 | 0.00 | 0.00 | 0.00 | 52 | 1007.3 |
| 20260506170023 | 22 | 97 | 9.7 | 25.7 | 0.00 | 0.00 | 0.00 | 53 | 1007.5 |
| 20260506165508 | 22 | 80 | 9.7 | 25.7 | 0.00 | 0.00 | 0.00 | 51 | 1007.5 |
| 20260506165007 | 22 | 107 | 6.4 | 22.5 | 0.00 | 0.00 | 0.00 | 53 | 1007.6 |
| 20260506164520 | 22 | 113 | 11.3 | 22.5 | 0.00 | 0.00 | 0.00 | 52 | 1007.7 |
| 20260506164011 | 22 | 98 | 9.7 | 24.1 | 0.00 | 0.00 | 0.00 | 53 | 1007.5 |
| 20260506163506 | 22 | 33 | 3.2 | 24.1 | 0.00 | 0.00 | 0.00 | 55 | 1007.8 |
| 20260506163025 | 21 | 96 | 8.0 | 20.9 | 0.00 | 0.00 | 0.00 | 56 | 1007.9 |
| 20260506162506 | 21 | 137 | 8.0 | 25.7 | 0.00 | 0.00 | 0.00 | 56 | 1008.0 |
| 20260506162011 | 21 | 55 | 8.0 | 25.7 | 0.00 | 0.00 | 0.00 | 56 | 1008.1 |
| 20260506161515 | 21 | 97 | 1.6 | 19.3 | 0.00 | 0.00 | 0.00 | 58 | 1008.2 |
| 20260506161010 | 21 | 96 | 8.0 | 16.1 | 0.00 | 0.00 | 0.00 | 57 | 1008.2 |
| 20260506160513 | 21 | 101 | 4.8 | 17.7 | 0.00 | 0.00 | 0.00 | 57 | 1008.3 |
| 20260506160027 | 21 | 93 | 6.4 | 20.9 | 0.00 | 0.00 | 0.00 | 57 | 1008.4 |
| 20260506155506 | 21 | 60 | 3.2 | 24.1 | 0.00 | 0.00 | 0.00 | 57 | 1008.5 |
| 20260506155009 | 21 | 117 | 11.3 | 24.1 | 0.00 | 0.00 | 0.00 | 58 | 1008.6 |
| 20260506154527 | 21 | 92 | 6.4 | 19.3 | 0.00 | 0.00 | 0.00 | 59 | 1008.6 |
| 20260506154006 | 21 | 86 | 3.2 | 17.7 | 0.00 | 0.00 | 0.00 | 59 | 1008.7 |
| 20260506153510 | 21 | 87 | 4.8 | 17.7 | 0.00 | 0.00 | 0.00 | 60 | 1008.8 |
| 20260506153024 | 20 | 102 | 6.4 | 17.7 | 0.00 | 0.00 | 0.00 | 60 | 1008.8 |
| 20260506152508 | 20 | 61 | 4.8 | 17.7 | 0.00 | 0.00 | 0.00 | 61 | 1008.8 |
| 20260506152006 | 20 | 35 | 4.8 | 17.7 | 0.00 | 0.00 | 0.00 | 61 | 1009.0 |
| 20260506151526 | 20 | 83 | 3.2 | 20.9 | 0.00 | 0.00 | 0.00 | 61 | 1009.1 |
| 20260506151008 | 20 | 101 | 12.9 | 20.9 | 0.00 | 0.00 | 0.00 | 61 | 1009.1 |
| 20260506150510 | 20 | 59 | 6.4 | 20.9 | 0.00 | 0.00 | 0.00 | 61 | 1009.2 |
| 20260506150020 | 20 | 92 | 9.7 | 20.9 | 0.00 | 0.00 | 0.00 | 62 | 1009.4 |
| 20260506145511 | 20 | 105 | 3.2 | 16.1 | 0.00 | 0.00 | 0.00 | 64 | 1009.3 |
| 20260506145009 | 20 | 123 | 4.8 | 22.5 | 0.00 | 0.00 | 0.00 | 64 | 1009.2 |
| 20260506144518 | 20 | 113 | 0.0 | 22.5 | 0.00 | 0.00 | 0.00 | 65 | 1009.4 |
| 20260506144006 | 20 | 111 | 4.8 | 22.5 | 0.00 | 0.00 | 0.00 | 65 | 1009.6 |
| 20260506143508 | 19 | 74 | 9.7 | 22.5 | 0.00 | 0.00 | 0.00 | 65 | 1009.6 |
| 20260506143027 | 19 | 96 | 6.4 | 16.1 | 0.00 | 0.00 | 0.00 | 65 | 1009.6 |
| 20260506142513 | 19 | 83 | 6.4 | 19.3 | 0.00 | 0.00 | 0.00 | 66 | 1009.6 |
| 20260506142010 | 19 | 117 | 8.0 | 19.3 | 0.00 | 0.00 | 0.00 | 66 | 1009.4 |
| 20260506141531 | 19 | 101 | 8.0 | 17.7 | 0.00 | 0.00 | 0.00 | 66 | 1009.4 |
| 20260506141011 | 19 | 87 | 4.8 | 20.9 | 0.00 | 0.00 | 0.00 | 66 | 1009.3 |
| 20260506140506 | 19 | 266 | 8.0 | 20.9 | 0.00 | 0.00 | 0.00 | 66 | 1009.2 |
| 20260506140028 | 19 | 134 | 3.2 | 20.9 | 0.00 | 0.00 | 0.00 | 66 | 1009.2 |
| 20260506135513 | 19 | 84 | 4.8 | 20.9 | 0.00 | 0.00 | 0.00 | 67 | 1009.1 |
| 20260506135008 | 19 | 68 | 4.8 | 16.1 | 0.00 | 0.00 | 0.00 | 67 | 1009.3 |
| 20260506134524 | 19 | 291 | 3.2 | 16.1 | 0.00 | 0.00 | 0.00 | 67 | 1009.5 |
| 20260506134011 | 19 | 67 | 6.4 | 20.9 | 0.00 | 0.00 | 0.00 | 67 | 1009.4 |
| 20260506133506 | 19 | 55 | 8.0 | 20.9 | 0.00 | 0.00 | 0.00 | 66 | 1009.5 |
| 20260506133022 | 19 | 294 | 4.8 | 22.5 | 0.00 | 0.00 | 0.00 | 67 | 1009.5 |
| 20260506132513 | 19 | 105 | 3.2 | 22.5 | 0.00 | 0.00 | 0.00 | 67 | 1009.6 |
| 20260506132011 | 19 | 87 | 3.2 | 12.9 | 0.00 | 0.00 | 0.00 | 67 | 1009.7 |
| 20260506131530 | 19 | 101 | 6.4 | 12.9 | 0.00 | 0.00 | 0.00 | 67 | 1009.8 |
| 20260506131011 | 18 | 341 | 3.2 | 12.9 | 0.00 | 0.00 | 0.00 | 69 | 1009.9 |
| 20260506130507 | 18 | 352 | 4.8 | 14.5 | 0.00 | 0.00 | 0.00 | 72 | 1010.0 |
| 20260506130016 | 17 | 112 | 3.2 | 14.5 | 0.00 | 0.00 | 0.00 | 72 | 1010.1 |
| 20260506125510 | 17 | 116 | 6.4 | 14.5 | 0.00 | 0.00 | 0.00 | 72 | 1010.1 |
| 20260506125007 | 17 | 59 | 3.2 | 12.9 | 0.00 | 0.00 | 0.00 | 72 | 1010.0 |
| 20260506124516 | 17 | 83 | 1.6 | 22.5 | 0.00 | 0.00 | 0.00 | 73 | 1009.9 |
| 20260506124007 | 17 | 65 | 4.8 | 22.5 | 0.00 | 0.00 | 0.00 | 72 | 1010.0 |
| 20260506123504 | 17 | 91 | 4.8 | 16.1 | 0.00 | 0.00 | 0.00 | 72 | 1010.0 |
| 20260506123012 | 17 | 65 | 6.4 | 14.5 | 0.00 | 0.00 | 0.00 | 71 | 1010.0 |
| 20260506122507 | 17 | 314 | 6.4 | 20.9 | 0.00 | 0.00 | 0.00 | 72 | 1009.8 |
| 20260506122003 | 17 | 122 | 6.4 | 20.9 | 0.00 | 0.00 | 0.00 | 73 | 1009.7 |
| 20260506121510 | 16 | 92 | 3.2 | 17.7 | 0.00 | 0.00 | 0.00 | 74 | 1009.9 |
| 20260506121005 | 16 | 85 | 9.7 | 17.7 | 0.00 | 0.00 | 0.00 | 74 | 1010.0 |
| 20260506120507 | 16 | 36 | 3.2 | 17.7 | 0.00 | 0.00 | 0.00 | 75 | 1010.0 |
| 20260506120014 | 16 | 94 | 6.4 | 22.5 | 0.00 | 0.00 | 0.00 | 74 | 1010.0 |
| 20260506115511 | 16 | 79 | 8.0 | 22.5 | 0.00 | 0.00 | 0.00 | 74 | 1009.9 |
| 20260506115007 | 17 | 335 | 6.4 | 14.5 | 0.00 | 0.00 | 0.00 | 73 | 1009.8 |
| 20260506114504 | 16 | 100 | 3.2 | 11.3 | 0.00 | 0.00 | 0.00 | 74 | 1009.9 |
| 20260506114005 | 16 | 90 | 4.8 | 20.9 | 0.00 | 0.00 | 0.00 | 76 | 1010.0 |
| 20260506113506 | 16 | 97 | 6.4 | 20.9 | 0.00 | 0.00 | 0.00 | 76 | 1010.1 |
| 20260506113022 | 16 | 333 | 4.8 | 14.5 | 0.00 | 0.00 | 0.00 | 77 | 1010.0 |
| 20260506112503 | 16 | 57 | 6.4 | 14.5 | 0.00 | 0.00 | 0.00 | 77 | 1010.3 |
| 20260506112003 | 16 | 105 | 4.8 | 12.9 | 0.00 | 0.00 | 0.00 | 76 | 1010.1 |
| 20260506111521 | 15 | 99 | 3.2 | 16.1 | 0.00 | 0.00 | 0.00 | 78 | 1010.3 |
| 20260506111006 | 15 | 85 | 6.4 | 16.1 | 0.00 | 0.00 | 0.00 | 77 | 1010.4 |
| 20260506110505 | 15 | 80 | 3.2 | 17.7 | 0.00 | 0.00 | 0.00 | 77 | 1010.3 |
| 20260506110015 | 15 | 41 | 9.7 | 17.7 | 0.00 | 0.00 | 0.00 | 77 | 1010.2 |
| 20260506105507 | 15 | 103 | 3.2 | 14.5 | 0.00 | 0.00 | 0.00 | 78 | 1010.0 |
| 20260506105005 | 15 | 76 | 3.2 | 17.7 | 0.00 | 0.00 | 0.00 | 78 | 1010.0 |
| 20260506104510 | 15 | 90 | 4.8 | 17.7 | 0.00 | 0.00 | 0.00 | 78 | 1010.1 |
| 20260506104006 | 15 | 85 | 1.6 | 12.9 | 0.00 | 0.00 | 0.00 | 78 | 1010.0 |
| 20260506103509 | 15 | 71 | 1.6 | 14.5 | 0.00 | 0.00 | 0.00 | 78 | 1010.0 |
| 20260506103009 | 15 | 90 | 3.2 | 14.5 | 0.00 | 0.00 | 0.00 | 78 | 1010.0 |
| 20260506102507 | 15 | 95 | 6.4 | 12.9 | 0.00 | 0.00 | 0.00 | 79 | 1009.9 |
| 20260506102008 | 15 | 44 | 4.8 | 12.9 | 0.00 | 0.00 | 0.00 | 79 | 1009.9 |
| 20260506101506 | 15 | 80 | 3.2 | 16.1 | 0.00 | 0.00 | 0.00 | 79 | 1009.9 |
| 20260506101003 | 15 | 67 | 4.8 | 16.1 | 0.00 | 0.00 | 0.00 | 78 | 1009.9 |
| 20260506100505 | 15 | 103 | 1.6 | 17.7 | 0.00 | 0.00 | 0.00 | 78 | 1009.9 |
| 20260506100023 | 15 | 59 | 6.4 | 17.7 | 0.00 | 0.00 | 0.00 | 78 | 1009.9 |
| 20260506095506 | 15 | 101 | 6.4 | 16.1 | 0.00 | 0.00 | 0.00 | 78 | 1009.9 |
| 20260506095004 | 15 | 88 | 4.8 | 12.9 | 0.00 | 0.00 | 0.00 | 78 | 1009.8 |
| 20260506094524 | 15 | 71 | 1.6 | 11.3 | 0.00 | 0.00 | 0.00 | 78 | 1009.9 |
| 20260506094003 | 15 | 82 | 3.2 | 9.7 | 0.00 | 0.00 | 0.00 | 78 | 1009.9 |
| 20260506093506 | 15 | 99 | 1.6 | 9.7 | 0.00 | 0.00 | 0.00 | 77 | 1009.8 |
| 20260506093023 | 15 | 118 | 1.6 | 14.5 | 0.00 | 0.00 | 0.00 | 77 | 1009.8 |
| 20260506092506 | 15 | 111 | 3.2 | 14.5 | 0.00 | 0.00 | 0.00 | 77 | 1009.7 |
| 20260506092005 | 15 | 107 | 0.0 | 8.0 | 0.00 | 0.00 | 0.00 | 77 | 1009.8 |
| 20260506091516 | 15 | 84 | 4.8 | 12.9 | 0.00 | 0.00 | 0.00 | 77 | 1009.9 |
| 20260506091007 | 15 | 88 | 1.6 | 12.9 | 0.00 | 0.00 | 0.00 | 76 | 1009.8 |
| 20260506090506 | 15 | 69 | 3.2 | 9.7 | 0.00 | 0.00 | 0.00 | 76 | 1009.8 |
| 20260506090011 | 15 | 81 | 3.2 | 9.7 | 0.00 | 0.00 | 0.00 | 76 | 1009.8 |
| 20260506085506 | 15 | 110 | 3.2 | 12.9 | 0.00 | 0.00 | 0.00 | 76 | 1009.8 |
| 20260506085007 | 15 | 104 | 1.6 | 12.9 | 0.00 | 0.00 | 0.00 | 76 | 1009.9 |
| 20260506084507 | 15 | 98 | 3.2 | 12.9 | 0.00 | 0.00 | 0.00 | 76 | 1009.8 |
| 20260506084004 | 15 | 116 | 6.4 | 12.9 | 0.00 | 0.00 | 0.00 | 75 | 1009.9 |
| 20260506083505 | 15 | 102 | 3.2 | 11.3 | 0.00 | 0.00 | 0.00 | 75 | 1010.0 |
| 20260506083028 | 15 | 84 | 1.6 | 11.3 | 0.00 | 0.00 | 0.00 | 75 | 1009.9 |
| 20260506082503 | 15 | 80 | 3.2 | 11.3 | 0.00 | 0.00 | 0.00 | 75 | 1009.9 |
| 20260506082007 | 15 | 109 | 3.2 | 9.7 | 0.00 | 0.00 | 0.00 | 74 | 1009.9 |
| 20260506081532 | 15 | 69 | 3.2 | 12.9 | 0.00 | 0.00 | 0.00 | 74 | 1009.9 |
| 20260506081004 | 15 | 101 | 4.8 | 12.9 | 0.00 | 0.00 | 0.00 | 74 | 1010.0 |
| 20260506080506 | 15 | 98 | 1.6 | 6.4 | 0.00 | 0.00 | 0.00 | 74 | 1009.9 |
| 20260506073504 | 16 | 103 | 1.6 | 6.4 | 0.00 | 0.00 | 0.00 | 72 | 1009.9 |
| 20260506073030 | 16 | 69 | 3.2 | 6.4 | 0.00 | 0.00 | 0.00 | 71 | 1009.9 |
| 20260506072507 | 16 | 78 | 1.6 | 12.9 | 0.00 | 0.00 | 0.00 | 71 | 1009.9 |
| 20260506072013 | 16 | 101 | 1.6 | 12.9 | 0.00 | 0.00 | 0.00 | 71 | 1009.8 |
| 20260506071509 | 16 | 36 | 3.2 | 14.5 | 0.00 | 0.00 | 0.00 | 70 | 1009.8 |
| 20260506071010 | 16 | 99 | 1.6 | 14.5 | 0.00 | 0.00 | 0.00 | 70 | 1009.7 |
| 20260506070506 | 16 | 84 | 3.2 | 14.5 | 0.00 | 0.00 | 0.00 | 70 | 1009.7 |
| 20260506062509 | 17 | 51 | 3.2 | 14.5 | 0.00 | 0.00 | 0.00 | 66 | 1009.6 |
| 20260506062006 | 17 | 92 | 3.2 | 14.5 | 0.00 | 0.00 | 0.00 | 66 | 1009.5 |
| 20260506061520 | 17 | 100 | 4.8 | 17.7 | 0.00 | 0.00 | 0.00 | 65 | 1009.5 |
| 20260506061006 | 17 | 82 | 3.2 | 17.7 | 0.00 | 0.00 | 0.00 | 65 | 1009.5 |
| 20260506060502 | 17 | 103 | 4.8 | 19.3 | 0.00 | 0.00 | 0.00 | 65 | 1009.4 |
| 20260506051005 | 17 | 108 | 1.6 | 9.7 | 0.00 | 0.00 | 0.00 | 62 | 1009.8 |
| 20260506050506 | 17 | 76 | 4.8 | 12.9 | 0.00 | 0.00 | 0.00 | 62 | 1009.8 |
| 20260506045007 | 17 | 83 | 3.2 | 11.3 | 0.00 | 0.00 | 0.00 | 62 | 1010.0 |
| 20260506044551 | 17 | 51 | 4.8 | 9.7 | 0.00 | 0.00 | 0.00 | 62 | 1009.9 |
| 20260506044009 | 17 | 107 | 3.2 | 8.0 | 0.00 | 0.00 | 0.00 | 62 | 1009.9 |
| 20260506043506 | 17 | 90 | 1.6 | 16.1 | 0.00 | 0.00 | 0.00 | 62 | 1009.9 |
| 20260506043022 | 17 | 80 | 6.4 | 16.1 | 0.00 | 0.00 | 0.00 | 62 | 1009.9 |
| 20260506042509 | 17 | 132 | 3.2 | 16.1 | 0.00 | 0.00 | 0.00 | 62 | 1010.0 |
| 20260506042012 | 17 | 69 | 4.8 | 16.1 | 0.00 | 0.00 | 0.00 | 62 | 1010.0 |
| 20260506041519 | 17 | 86 | 1.6 | 9.7 | 0.00 | 0.00 | 0.00 | 62 | 1009.9 |
| 20260506041012 | 17 | 94 | 1.6 | 9.7 | 0.00 | 0.00 | 0.00 | 62 | 1010.0 |
| 20260506040510 | 17 | 89 | 3.2 | 8.0 | 0.00 | 0.00 | 0.00 | 62 | 1010.0 |
| 20260506040013 | 16 | 72 | 1.6 | 6.4 | 0.00 | 0.00 | 0.00 | 62 | 1010.0 |
| 20260506035506 | 17 | 97 | 0.0 | 6.4 | 0.00 | 0.00 | 0.00 | 62 | 1010.1 |
| 20260506035007 | 17 | 102 | 0.0 | 4.8 | 0.00 | 0.00 | 0.00 | 62 | 1010.0 |
| 20260506034548 | 17 | 82 | 1.6 | 9.7 | 0.00 | 0.00 | 0.00 | 61 | 1010.1 |
| 20260506034008 | 17 | 82 | 3.2 | 9.7 | 0.00 | 0.00 | 0.00 | 61 | 1010.0 |
| 20260506033506 | 17 | 69 | 1.6 | 6.4 | 0.00 | 0.00 | 0.00 | 61 | 1010.1 |
| 20260506033025 | 17 | 97 | 1.6 | 8.0 | 0.00 | 0.00 | 0.00 | 60 | 1010.1 |
| 20260506032507 | 17 | 94 | 1.6 | 12.9 | 0.00 | 0.00 | 0.00 | 60 | 1010.0 |
| 20260506032008 | 17 | 74 | 4.8 | 11.3 | 0.00 | 0.00 | 0.00 | 60 | 1010.0 |
| 20260506031526 | 17 | 99 | 1.6 | 12.9 | 0.00 | 0.00 | 0.00 | 60 | 1010.1 |
| 20260506031008 | 17 | 101 | 6.4 | 12.9 | 0.00 | 0.00 | 0.00 | 60 | 1010.1 |
| 20260506030507 | 17 | 94 | 1.6 | 9.7 | 0.00 | 0.00 | 0.00 | 60 | 1010.1 |
| 20260506030024 | 17 | 103 | 1.6 | 9.7 | 0.00 | 0.00 | 0.00 | 59 | 1010.1 |
| 20260506025512 | 17 | 115 | 3.2 | 12.9 | 0.00 | 0.00 | 0.00 | 59 | 1010.1 |
| 20260506025004 | 17 | 97 | 4.8 | 12.9 | 0.00 | 0.00 | 0.00 | 59 | 1010.1 |
| 20260506024520 | 17 | 77 | 1.6 | 11.3 | 0.00 | 0.00 | 0.00 | 59 | 1010.0 |
| 20260506024011 | 17 | 65 | 3.2 | 9.7 | 0.00 | 0.00 | 0.00 | 58 | 1010.1 |
| 20260506023513 | 17 | 76 | 3.2 | 12.9 | 0.00 | 0.00 | 0.00 | 58 | 1010.0 |
| 20260506023018 | 18 | 95 | 1.6 | 14.5 | 0.00 | 0.00 | 0.00 | 58 | 1010.0 |
| 20260506022510 | 18 | 101 | 6.4 | 14.5 | 0.00 | 0.00 | 0.00 | 57 | 1010.0 |
| 20260506022006 | 18 | 76 | 4.8 | 9.7 | 0.00 | 0.00 | 0.00 | 57 | 1010.1 |
| 20260506021517 | 18 | 96 | 4.8 | 11.3 | 0.00 | 0.00 | 0.00 | 57 | 1010.0 |
| 20260506021009 | 18 | 98 | 4.8 | 11.3 | 0.00 | 0.00 | 0.00 | 57 | 1010.0 |
| 20260506020509 | 18 | 93 | 4.8 | 11.3 | 0.00 | 0.00 | 0.00 | 56 | 1010.1 |
| 20260506020026 | 18 | 106 | 3.2 | 6.4 | 0.00 | 0.00 | 0.00 | 56 | 1010.1 |
| 20260506015507 | 18 | 100 | 1.6 | 9.7 | 0.00 | 0.00 | 0.00 | 56 | 1009.9 |
| 20260506015011 | 18 | 102 | 1.6 | 11.3 | 0.00 | 0.00 | 0.00 | 55 | 1010.0 |
| 20260506014531 | 19 | 100 | 0.0 | 11.3 | 0.00 | 0.00 | 0.00 | 55 | 1010.0 |
| 20260506014011 | 19 | 92 | 0.0 | 3.2 | 0.00 | 0.00 | 0.00 | 54 | 1010.0 |
| 20260506013509 | 19 | 91 | 1.6 | 8.0 | 0.00 | 0.00 | 0.00 | 53 | 1009.9 |
| 20260506013023 | 19 | 107 | 0.0 | 20.9 | 0.00 | 0.00 | 0.00 | 53 | 1009.7 |
| 20260506012509 | 20 | 101 | 8.0 | 20.9 | 0.00 | 0.00 | 0.00 | 53 | 1009.6 |
| 20260506012007 | 20 | 69 | 4.8 | 14.5 | 0.00 | 0.00 | 0.00 | 53 | 1009.4 |
| 20260506011523 | 20 | 88 | 4.8 | 14.5 | 0.00 | 0.00 | 0.00 | 52 | 1009.2 |
| 20260506011011 | 20 | 96 | 1.6 | 16.1 | 0.00 | 0.00 | 0.00 | 52 | 1009.2 |